Regional Weather Roundup
Issued by NWS

Home | Current Version | Previous Version | Text Only | Print | Product List | Glossary On
Versions: 1 2 3 4 5 6 7 8 9 10 11 12 13 14 15 16 17 18 19 20 21 22 23 24 25 26 27 28 29 30 31 32 33 34 35 36 37 38 39 40 41 42 43 44 45 46 47 48 49 50
589
ASUS43 KTOP 271608
RWRKS

WEATHER ROUNDUP FOR KANSAS
NATIONAL WEATHER SERVICE GOODLAND KS
1100 AM CDT THU APR 27 2017

NOTE:  "FAIR" INDICATES FEW OR NO CLOUDS BELOW 12,000 FEET WITH NO
SIGNIFICANT WEATHER AND/OR OBSTRUCTIONS TO VISIBILITY.

KSZ001>006-013>018-027>032-041>047-271700-
NORTHWEST KANSAS

CITY           SKY/WX    TMP DP  RH WIND       PRES   REMARKS
GOODLAND       CLOUDY    51  35  54 S17       29.57F
HAYS           PTSUNNY   50  36  58 SE17      29.70F
HILL CITY      CLOUDY    48  35  60 SE14G21   29.68F
RUSSELL        CLOUDY    50  35  56 SE13      29.70F
$$

KSZ061>065-074>080-084>089-271700-
SOUTHWEST KANSAS

CITY           SKY/WX    TMP DP  RH WIND       PRES   REMARKS
DODGE CITY     CLOUDY    56  38  50 SE17      29.64F
ELKHART          N/A     51  38  61 S18         N/A
GARDEN CITY    CLOUDY    58  36  43 S15G26    29.59F
GREAT BEND     CLOUDY    52  37  56 SE15      29.70F
LIBERAL        CLOUDY    56  39  53 SE21      29.60F
PRATT          CLOUDY    50  38  65 SE12      29.71F
$$

KSZ066>073-081>083-090>101-271700-
SOUTHEAST KANSAS

CITY           SKY/WX    TMP DP  RH WIND       PRES   REMARKS
CHANUTE        SUNNY     53  38  56 CALM      29.80F
COFFEYVILLE    SUNNY     55  40  56 CALM      29.80F
HUTCHINSON     CLOUDY    51  36  56 SE9       29.75F
MEDICINE LODGE   N/A     55  40  56 S9        29.71F
NEWTON         SUNNY     53  38  56 SE6       29.77F
PARSONS        SUNNY     55  40  56 CALM      29.81F
WICHITA INTL   PTSUNNY   54  39  57 SE7       29.74F
WICHITA JABRA  SUNNY     54  39  57 SE8       29.75F
WICHITA MCCONL MOSUNNY   54  37  52 SE5       29.75F
WINFIELD       MOSUNNY   57  41  55 E7        29.75F
$$

KSZ007>012-019>026-033>040-048>060-102>105-271700-
NORTHEAST KANSAS

CITY           SKY/WX    TMP DP  RH WIND       PRES   REMARKS
CONCORDIA      PTSUNNY   49  34  56 CALM      29.75F
EMPORIA        SUNNY     51  35  54 CALM      29.78F
LAWRENCE       SUNNY     53  36  52 SW12G17   29.79R
MANHATTAN      SUNNY     52  35  52 VRB5      29.77F
MARYSVILLE     SUNNY     50  34  53 CALM      29.77R
OLATHE IND     SUNNY     50  35  56 W10       29.79R
OLATHE EXE     SUNNY     51  38  60 W7        29.78R
SALINA         MOSUNNY   52  35  52 SE8       29.76F
TOPEKA BILLARD SUNNY     53  36  52 W13       29.79R
TOPEKA FORBES  SUNNY     54  35  48 W7        29.78R
$$




USA.gov is the U.S. government's official web portal to all federal, state and local government web resources and services.